N312CL KFXE-MBPV

Flight info

Callsign N312CL
Flight time 1h 18m
Altitude 41000
Route GABOW2 SUMAC DCT SOLEI
Aircraft LJ35/M-SGHRWXY/SB1

Departure

Time 2026-04-20 23:46
Airport Fort Lauderdale Executive Airport (KFXE)

Arrival

Time 2026-04-21 01:05
Airport Providenciales International Airport (MBPV)
Time Latitude Longitude Altitude Speed Heading
2026-04-20 23:45 26.19892 -80.18051 16 ft 11 kts 231°
2026-04-20 23:45 26.19842 -80.18089 15 ft 6 kts 176°
2026-04-20 23:45 26.19784 -80.18082 13 ft 13 kts 173°
2026-04-20 23:45 26.19758 -80.18065 13 ft 0 kts 81°
2026-04-20 23:46 26.19794 -80.17762 17 ft 113 kts 83°
2026-04-20 23:46 26.19909 -80.16408 682 ft 206 kts 73°
2026-04-20 23:46 26.20190 -80.14852 1946 ft 201 kts 68°
2026-04-20 23:46 26.20632 -80.13344 2820 ft 212 kts 62°
2026-04-20 23:47 26.21268 -80.11722 3195 ft 230 kts 66°
2026-04-20 23:47 26.21374 -80.10598 6181 ft 84 kts 85°
2026-04-20 23:47 26.21335 -80.09654 6308 ft 168 kts 78°
2026-04-20 23:47 26.21498 -80.08242 6693 ft 198 kts 83°
2026-04-20 23:48 26.21553 -80.06612 7150 ft 223 kts 85°
2026-04-20 23:48 26.21603 -80.04813 7532 ft 246 kts 84°
2026-04-20 23:48 26.21660 -80.02881 8211 ft 252 kts 87°
2026-04-20 23:48 26.21717 -80.00910 8965 ft 256 kts 86°
2026-04-20 23:49 26.21787 -79.98935 9703 ft 262 kts 86°
2026-04-20 23:49 26.21853 -79.96886 10373 ft 268 kts 86°
2026-04-20 23:49 26.21912 -79.94796 11038 ft 271 kts 86°
2026-04-20 23:49 26.21976 -79.92666 11621 ft 279 kts 85°
2026-04-20 23:50 26.22043 -79.90472 12230 ft 284 kts 86°
2026-04-20 23:50 26.22110 -79.88265 12924 ft 286 kts 86°
2026-04-20 23:50 26.22172 -79.86019 13507 ft 293 kts 86°
2026-04-20 23:50 26.22243 -79.83730 14075 ft 299 kts 85°
2026-04-20 23:51 26.22315 -79.81409 14634 ft 301 kts 86°
2026-04-20 23:51 26.22383 -79.79069 15184 ft 305 kts 86°
2026-04-20 23:51 26.22449 -79.76667 15627 ft 313 kts 86°
2026-04-20 23:51 26.22519 -79.74267 16172 ft 315 kts 86°
2026-04-20 23:52 26.22592 -79.71813 16685 ft 319 kts 86°
2026-04-20 23:52 26.22663 -79.69321 17176 ft 324 kts 86°
2026-04-20 23:52 26.22734 -79.66789 17665 ft 329 kts 86°
2026-04-20 23:52 26.22808 -79.64220 18143 ft 333 kts 86°
2026-04-20 23:53 26.22678 -79.61631 18573 ft 339 kts 100°
2026-04-20 23:53 26.21993 -79.59117 19014 ft 340 kts 115°
2026-04-20 23:53 26.20988 -79.56726 19461 ft 342 kts 117°
2026-04-20 23:53 26.19980 -79.54316 19903 ft 344 kts 117°
2026-04-20 23:54 26.18976 -79.51891 20337 ft 346 kts 117°
2026-04-20 23:54 26.17959 -79.49444 20766 ft 348 kts 117°
2026-04-20 23:54 26.16941 -79.47007 21279 ft 347 kts 117°
2026-04-20 23:54 26.15921 -79.44564 21695 ft 350 kts 117°
2026-04-20 23:55 26.14891 -79.42097 22114 ft 352 kts 117°
2026-04-20 23:55 26.13845 -79.39623 22510 ft 354 kts 120°
2026-04-20 23:55 26.12623 -79.37242 22905 ft 355 kts 123°
2026-04-20 23:55 26.11363 -79.34869 23309 ft 358 kts 123°
2026-04-20 23:56 26.10109 -79.32470 23692 ft 360 kts 123°
2026-04-20 23:56 26.08858 -79.30050 24012 ft 362 kts 123°
2026-04-20 23:56 26.07588 -79.27616 24316 ft 365 kts 123°
2026-04-20 23:56 26.06307 -79.25170 24624 ft 367 kts 123°
2026-04-20 23:57 26.05020 -79.22708 24924 ft 370 kts 123°
2026-04-20 23:57 26.03722 -79.20224 25225 ft 372 kts 123°
2026-04-20 23:57 26.02431 -79.17755 25520 ft 375 kts 124°
2026-04-20 23:57 26.01114 -79.15241 25816 ft 377 kts 124°
2026-04-20 23:58 25.99791 -79.12715 26113 ft 379 kts 124°
2026-04-20 23:58 25.98411 -79.10206 26400 ft 380 kts 129°
2026-04-20 23:58 25.96895 -79.07795 26692 ft 382 kts 130°
2026-04-20 23:58 25.95356 -79.05376 26985 ft 384 kts 129°
2026-04-20 23:59 25.93825 -79.02930 27268 ft 387 kts 129°
2026-04-20 23:59 25.92288 -79.00461 27546 ft 389 kts 129°
2026-04-20 23:59 25.90738 -78.97991 27821 ft 391 kts 129°
2026-04-20 23:59 25.89172 -78.95504 28094 ft 394 kts 130°
2026-04-21 00:00 25.87599 -78.93002 28356 ft 396 kts 130°
2026-04-21 00:00 25.86018 -78.90487 28615 ft 399 kts 130°
2026-04-21 00:00 25.84430 -78.87957 28884 ft 401 kts 130°
2026-04-21 00:00 25.82829 -78.85413 29129 ft 403 kts 130°
2026-04-21 00:01 25.81223 -78.82866 29417 ft 403 kts 129°
2026-04-21 00:01 25.79614 -78.80308 29659 ft 406 kts 129°
2026-04-21 00:01 25.77990 -78.77732 29900 ft 408 kts 129°
2026-04-21 00:01 25.76358 -78.75143 30149 ft 410 kts 129°
2026-04-21 00:02 25.74717 -78.72544 30339 ft 412 kts 129°
2026-04-21 00:02 25.73073 -78.69929 30526 ft 415 kts 129°
2026-04-21 00:02 25.71453 -78.67267 30746 ft 417 kts 128°
2026-04-21 00:02 25.69836 -78.64585 30917 ft 419 kts 128°
2026-04-21 00:03 25.68191 -78.61904 31095 ft 421 kts 128°
2026-04-21 00:03 25.66551 -78.59252 31277 ft 423 kts 128°
2026-04-21 00:03 25.64888 -78.56545 31461 ft 426 kts 128°
2026-04-21 00:03 25.63226 -78.53828 31642 ft 428 kts 128°
2026-04-21 00:04 25.61546 -78.51094 31823 ft 430 kts 129°
2026-04-21 00:04 25.59853 -78.48345 32001 ft 432 kts 129°
2026-04-21 00:04 25.58237 -78.45519 32173 ft 438 kts 121°
2026-04-21 00:04 25.57073 -78.42387 32343 ft 443 kts 109°
2026-04-21 00:05 25.56236 -78.39096 32516 ft 445 kts 106°
2026-04-21 00:05 25.55399 -78.35777 32685 ft 447 kts 107°
2026-04-21 00:05 25.54543 -78.32454 32856 ft 449 kts 107°
2026-04-21 00:05 25.53686 -78.29126 33015 ft 451 kts 107°
2026-04-21 00:06 25.52830 -78.25771 33189 ft 453 kts 107°
2026-04-21 00:06 25.51969 -78.22405 33347 ft 455 kts 107°
2026-04-21 00:06 25.51099 -78.19019 33508 ft 457 kts 107°
2026-04-21 00:06 25.50227 -78.15629 33663 ft 459 kts 107°
2026-04-21 00:07 25.49361 -78.12262 33813 ft 461 kts 107°
2026-04-21 00:07 25.48481 -78.08842 33962 ft 462 kts 107°
2026-04-21 00:07 25.47597 -78.05415 34100 ft 464 kts 107°
2026-04-21 00:07 25.46709 -78.01972 34236 ft 466 kts 107°
2026-04-21 00:08 25.45819 -77.98525 34368 ft 467 kts 107°
2026-04-21 00:08 25.44925 -77.95067 34524 ft 464 kts 106°
2026-04-21 00:08 25.44045 -77.91665 34929 ft 457 kts 106°
2026-04-21 00:09 25.42284 -77.84881 35116 ft 460 kts 106°
2026-04-21 00:09 25.41403 -77.81481 35226 ft 461 kts 106°
2026-04-21 00:09 25.40517 -77.78074 35321 ft 462 kts 106°
2026-04-21 00:10 25.38738 -77.71241 35522 ft 463 kts 106°
2026-04-21 00:10 25.37846 -77.67820 35716 ft 461 kts 107°
2026-04-21 00:10 25.36961 -77.64427 35966 ft 458 kts 107°
2026-04-21 00:10 25.36090 -77.61095 36196 ft 456 kts 107°
2026-04-21 00:11 25.35210 -77.57728 36424 ft 454 kts 107°
2026-04-21 00:11 25.34334 -77.54383 36649 ft 453 kts 107°
2026-04-21 00:11 25.33458 -77.51040 36877 ft 452 kts 107°
2026-04-21 00:11 25.32583 -77.47704 37070 ft 451 kts 107°
2026-04-21 00:12 25.31707 -77.44370 37275 ft 451 kts 107°
2026-04-21 00:12 25.30833 -77.41040 37475 ft 451 kts 107°
2026-04-21 00:12 25.29908 -77.37712 37658 ft 451 kts 112°
2026-04-21 00:12 25.28552 -77.34594 37818 ft 449 kts 124°
2026-04-21 00:13 25.26760 -77.31795 37984 ft 444 kts 135°
2026-04-21 00:13 25.24756 -77.29200 38177 ft 444 kts 135°
2026-04-21 00:13 25.22781 -77.26628 38369 ft 445 kts 135°
2026-04-21 00:13 25.20763 -77.23981 38552 ft 445 kts 135°
2026-04-21 00:14 25.18763 -77.21372 38742 ft 445 kts 135°
2026-04-21 00:14 25.16783 -77.18799 38895 ft 446 kts 135°
2026-04-21 00:14 25.14776 -77.16189 39041 ft 446 kts 135°
2026-04-21 00:14 25.12767 -77.13571 39194 ft 446 kts 135°
2026-04-21 00:15 25.10757 -77.10956 39332 ft 447 kts 135°
2026-04-21 00:15 25.06689 -77.05676 39246 ft 457 kts 134°
2026-04-21 00:15 25.04627 -77.02995 39415 ft 454 kts 134°
2026-04-21 00:16 25.02598 -77.00353 39736 ft 448 kts 134°
2026-04-21 00:16 25.00588 -76.97748 40027 ft 444 kts 135°
2026-04-21 00:16 24.98592 -76.95167 40297 ft 440 kts 135°
2026-04-21 00:16 24.96615 -76.92605 40549 ft 437 kts 134°
2026-04-21 00:17 24.94669 -76.90084 40782 ft 435 kts 134°
2026-04-21 00:17 24.92710 -76.87548 41018 ft 434 kts 134°
2026-04-21 00:17 24.90750 -76.85016 41092 ft 437 kts 134°
2026-04-21 00:18 24.86765 -76.79867 41097 ft 445 kts 134°
2026-04-21 00:18 24.82716 -76.74638 41105 ft 451 kts 134°
2026-04-21 00:19 24.78614 -76.69349 41106 ft 457 kts 134°
2026-04-21 00:19 24.74495 -76.64043 41105 ft 461 kts 134°
2026-04-21 00:20 24.70324 -76.58676 41099 ft 463 kts 134°
2026-04-21 00:20 24.66123 -76.53277 41108 ft 465 kts 134°
2026-04-21 00:21 24.61908 -76.47865 41107 ft 467 kts 134°
2026-04-21 00:21 24.57674 -76.42436 41106 ft 468 kts 134°
2026-04-21 00:22 24.53431 -76.37002 41106 ft 469 kts 134°
2026-04-21 00:22 24.49179 -76.31562 41104 ft 470 kts 134°
2026-04-21 00:23 24.44947 -76.26153 41104 ft 470 kts 134°
2026-04-21 00:23 24.40675 -76.20700 41101 ft 471 kts 134°
2026-04-21 00:24 24.36403 -76.15254 41067 ft 471 kts 134°
2026-04-21 00:24 24.32852 -76.10729 41089 ft 470 kts 134°
2026-04-21 00:25 24.28577 -76.05291 41089 ft 470 kts 134°
2026-04-21 00:25 24.23614 -75.98984 41088 ft 470 kts 134°
2026-04-21 00:26 24.20061 -75.94474 41093 ft 470 kts 134°
2026-04-21 00:26 24.15787 -75.89053 41088 ft 470 kts 134°
2026-04-21 00:27 24.11512 -75.83638 41089 ft 470 kts 134°
2026-04-21 00:27 24.07240 -75.78232 41089 ft 470 kts 134°
2026-04-21 00:28 24.02962 -75.72825 41091 ft 470 kts 134°
2026-04-21 00:28 23.98682 -75.67423 41089 ft 469 kts 134°
2026-04-21 00:29 23.94401 -75.62024 41085 ft 469 kts 134°
2026-04-21 00:29 23.90122 -75.56633 41086 ft 469 kts 134°
2026-04-21 00:30 23.85865 -75.51276 41084 ft 469 kts 134°
2026-04-21 00:30 23.81583 -75.45893 41082 ft 469 kts 135°
2026-04-21 00:31 23.77294 -75.40509 41080 ft 469 kts 135°
2026-04-21 00:31 23.73007 -75.35131 41084 ft 469 kts 135°
2026-04-21 00:32 23.68721 -75.29761 41083 ft 469 kts 135°
2026-04-21 00:32 23.64436 -75.24399 41078 ft 468 kts 135°
2026-04-21 00:33 23.60181 -75.19079 41079 ft 468 kts 135°
2026-04-21 00:33 23.55896 -75.13730 41074 ft 468 kts 135°
2026-04-21 00:34 23.51614 -75.08388 41073 ft 468 kts 135°
2026-04-21 00:34 23.47329 -75.03049 41075 ft 467 kts 135°
2026-04-21 00:35 23.43051 -74.97723 41074 ft 467 kts 135°
2026-04-21 00:35 23.38769 -74.92399 41076 ft 467 kts 135°
2026-04-21 00:36 23.34508 -74.87106 41072 ft 467 kts 135°
2026-04-21 00:36 23.30229 -74.81797 41069 ft 466 kts 135°
2026-04-21 00:37 23.25953 -74.76497 41074 ft 466 kts 135°
2026-04-21 00:37 23.21676 -74.71202 41069 ft 465 kts 135°
2026-04-21 00:38 23.17405 -74.65919 41067 ft 465 kts 135°
2026-04-21 00:38 23.13125 -74.60631 41067 ft 465 kts 135°
2026-04-21 00:39 23.08848 -74.55352 41063 ft 465 kts 135°
2026-04-21 00:39 23.04592 -74.50104 41063 ft 465 kts 135°
2026-04-21 00:40 23.00311 -74.44831 41065 ft 465 kts 135°
2026-04-21 00:40 22.96034 -74.39569 41054 ft 464 kts 135°
2026-04-21 00:41 22.91759 -74.34313 41069 ft 464 kts 135°
2026-04-21 00:41 22.87488 -74.29069 41069 ft 463 kts 135°
2026-04-21 00:42 22.83212 -74.23825 41067 ft 463 kts 135°
2026-04-21 00:42 22.78971 -74.18628 41067 ft 463 kts 135°
2026-04-21 00:43 22.74699 -74.13399 41067 ft 463 kts 135°
2026-04-21 00:43 22.70426 -74.08174 41067 ft 463 kts 135°
2026-04-21 00:44 22.66153 -74.02954 41067 ft 463 kts 135°
2026-04-21 00:44 22.61875 -73.97734 41067 ft 463 kts 135°
2026-04-21 00:45 22.55490 -73.89951 41067 ft 462 kts 135°
2026-04-21 00:45 22.51218 -73.84751 41064 ft 462 kts 135°
2026-04-21 00:46 22.46942 -73.79551 41061 ft 462 kts 135°
2026-04-21 00:46 22.42671 -73.74363 41065 ft 462 kts 135°
2026-04-21 00:47 22.40534 -73.71769 40665 ft 461 kts 135°
2026-04-21 00:47 22.38395 -73.69174 39887 ft 464 kts 135°
2026-04-21 00:47 22.36242 -73.66564 39156 ft 466 kts 135°
2026-04-21 00:47 22.34084 -73.63947 38399 ft 466 kts 135°
2026-04-21 00:48 22.31924 -73.61330 37600 ft 466 kts 135°
2026-04-21 00:48 22.29794 -73.58750 36852 ft 465 kts 135°
2026-04-21 00:48 22.27638 -73.56143 36131 ft 464 kts 135°
2026-04-21 00:48 22.25488 -73.53542 35444 ft 463 kts 135°
2026-04-21 00:49 22.23344 -73.50949 34760 ft 461 kts 135°
2026-04-21 00:49 22.21212 -73.48372 34127 ft 460 kts 135°
2026-04-21 00:49 22.19085 -73.45804 33425 ft 458 kts 135°
2026-04-21 00:49 22.16964 -73.43243 32740 ft 456 kts 135°
2026-04-21 00:50 22.14856 -73.40698 32088 ft 454 kts 135°
2026-04-21 00:50 22.12753 -73.38162 31454 ft 451 kts 135°
2026-04-21 00:50 22.10667 -73.35648 30845 ft 449 kts 135°
2026-04-21 00:50 22.08592 -73.33148 30259 ft 446 kts 135°
2026-04-21 00:51 22.06528 -73.30662 29594 ft 444 kts 135°
2026-04-21 00:51 22.04476 -73.28188 28934 ft 440 kts 134°
2026-04-21 00:51 22.02464 -73.25767 28308 ft 436 kts 134°
2026-04-21 00:51 22.00446 -73.23346 27703 ft 433 kts 134°
2026-04-21 00:52 21.98446 -73.20941 27106 ft 429 kts 134°
2026-04-21 00:52 21.96465 -73.18559 26462 ft 422 kts 134°
2026-04-21 00:52 21.94529 -73.16232 25759 ft 412 kts 134°
2026-04-21 00:52 21.92636 -73.13961 25071 ft 403 kts 134°
2026-04-21 00:53 21.90777 -73.11731 24408 ft 394 kts 133°
2026-04-21 00:53 21.88965 -73.09558 23759 ft 386 kts 133°
2026-04-21 00:53 21.87186 -73.07425 23028 ft 379 kts 133°
2026-04-21 00:53 21.85439 -73.05327 22297 ft 372 kts 132°
2026-04-21 00:54 21.83934 -73.03091 21573 ft 367 kts 120°
2026-04-21 00:54 21.82898 -73.00604 20881 ft 362 kts 108°
2026-04-21 00:54 21.82347 -72.97987 20209 ft 357 kts 96°
2026-04-21 00:54 21.82277 -72.95373 19571 ft 351 kts 85°
2026-04-21 00:55 21.82517 -72.92778 18951 ft 346 kts 83°
2026-04-21 00:55 21.82752 -72.90212 18354 ft 342 kts 83°
2026-04-21 00:55 21.82973 -72.87680 17673 ft 338 kts 83°
2026-04-21 00:55 21.83198 -72.85159 16880 ft 338 kts 83°
2026-04-21 00:56 21.83425 -72.82642 16025 ft 337 kts 83°
2026-04-21 00:56 21.83647 -72.80151 15083 ft 330 kts 83°
2026-04-21 00:56 21.83863 -72.77714 14196 ft 324 kts 83°
2026-04-21 00:56 21.84076 -72.75329 13260 ft 317 kts 84°
2026-04-21 00:57 21.84286 -72.72982 12314 ft 312 kts 84°
2026-04-21 00:57 21.84490 -72.70673 11416 ft 307 kts 84°
2026-04-21 00:57 21.84689 -72.68426 10569 ft 303 kts 84°
2026-04-21 00:57 21.84888 -72.66176 9709 ft 299 kts 84°
2026-04-21 00:58 21.85083 -72.63963 8810 ft 295 kts 84°
2026-04-21 00:58 21.85276 -72.61780 7952 ft 291 kts 84°
2026-04-21 00:58 21.85465 -72.59627 7122 ft 286 kts 84°
2026-04-21 00:58 21.85651 -72.57512 6310 ft 281 kts 84°
2026-04-21 00:59 21.85833 -72.55429 5481 ft 277 kts 83°
2026-04-21 00:59 21.86014 -72.53381 4675 ft 273 kts 84°
2026-04-21 00:59 21.86191 -72.51363 3902 ft 267 kts 83°
2026-04-21 00:59 21.86221 -72.49399 3275 ft 260 kts 97°
2026-04-21 01:00 21.85523 -72.47637 2597 ft 257 kts 126°
2026-04-21 01:00 21.84159 -72.46438 1948 ft 254 kts 152°
2026-04-21 01:00 21.82464 -72.45972 1308 ft 252 kts 172°
2026-04-21 01:00 21.80753 -72.45666 722 ft 247 kts 164°
2026-04-21 01:01 21.79357 -72.44793 745 ft 205 kts 130°
2026-04-21 01:01 21.78825 -72.43710 1499 ft 155 kts 107°
2026-04-21 01:01 21.78390 -72.42527 1628 ft 179 kts 109°
2026-04-21 01:01 21.78048 -72.41205 1867 ft 190 kts 97°
2026-04-21 01:02 21.77853 -72.39767 2022 ft 199 kts 95°
2026-04-21 01:02 21.77787 -72.38253 1986 ft 207 kts 89°
2026-04-21 01:02 21.77765 -72.36703 1920 ft 194 kts 90°
2026-04-21 01:02 21.77738 -72.35461 1679 ft 149 kts 90°
2026-04-21 01:03 21.77711 -72.34385 1281 ft 142 kts 90°
2026-04-21 01:03 21.77682 -72.33329 1051 ft 138 kts 90°
2026-04-21 01:03 21.77631 -72.32279 697 ft 142 kts 90°
2026-04-21 01:03 21.77582 -72.31237 511 ft 137 kts 90°
2026-04-21 01:04 21.77535 -72.30222 328 ft 134 kts 89°
2026-04-21 01:04 21.77482 -72.29217 181 ft 135 kts 91°
2026-04-21 01:04 21.77440 -72.28207 54 ft 134 kts 92°
2026-04-21 01:04 21.77392 -72.27297 7 ft 104 kts 91°
2026-04-21 01:05 21.77372 -72.26803 4 ft 40 kts 94°
2026-04-21 01:05 21.77359 -72.26515 3 ft 39 kts 92°
2026-04-21 01:05 21.77347 -72.26203 0 ft 45 kts 92°
2026-04-21 01:05 21.77331 -72.25902 -1 ft 29 kts 92°
2026-04-21 01:06 21.77382 -72.25849 -1 ft 12 kts 360°
2026-04-21 01:06 21.77461 -72.25846 -1 ft 9 kts
2026-04-21 01:06 21.77477 -72.25845 -2 ft 0 kts